Weather History for St. Joseph, MO

Change the Weather History Date:

Sunday, March 17, 2013

  Actual Average Record
Temperature  
Mean Temperature 36 °F 44 °F  
Max Temperature 42 °F 55 °F 81 °F (2009)
Min Temperature 29 °F 32 °F 9 °F (1960)
Degree Days  
Heating Degree Days 29 22  
Month to date heating degree days 473 426  
Since 1 July heating degree days 4577 4734  
Cooling Degree Days 0 0  
Month to date cooling degree days 0 0  
Year to date cooling degree days 0 0  
Moisture  
Dew Point 26 °F    
Average Humidity 68    
Maximum Humidity 82    
Minimum Humidity 53    
Precipitation  
Precipitation T in 0.08 in 1.70 in (1965)
Month to date precipitation 1.19 1.08  
Year to date precipitation 2.20 2.57  
Sea Level Pressure  
Sea Level Pressure 29.95 in    
Wind  
Wind Speed 12 mph (East)    
Max Wind Speed 22 mph    
Max Gust Speed 25 mph    
Visibility 10 miles    
Events      
T = Trace of Precipitation, MM = Missing Value Source: NWS Daily Summary

Daily Weather History Graph

Daily Weather History Graph

Search for Another Location

Airport:

Trip Planner

Search our weather history database for the weather conditions in past years. The results will help you decide how hot, cold, wet, or windy it might be!

Date:

Astronomy

Mar. 17, 2013 Rise Set
Actual Time 7:27 AM CDT 7:28 PM CDT
Civil Twilight 7:00 AM CDT 7:55 PM CDT
Nautical Twilight 6:29 AM CDT 8:27 PM CDT
Astronomical Twilight 5:57 AM CDT 8:59 PM CDT
Moon 10:41 AM CDT (3/17) 12:36 AM CDT (3/17)
Length of Visible Light 12h 55m
Length of Day
12h 01m
Waxing Crescent, 31% of the Moon is Illuminated
Mar 17
Waxing Crescent
Mar 19
First Quarter
Mar 27
Full
Apr 2
Last Quarter
Apr 10
New

Hourly Weather History & Observations

Time (CDT) Temp. Windchill Dew Point Humidity Pressure Visibility Wind Dir Wind Speed Gust Speed Precip Events Conditions
12:53 AM 33.1 °F 22.2 °F 24.1 °F 70% 30.13 in 10.0 mi NNE 17.3 mph - N/A   Overcast
1:53 AM 32.0 °F 21.2 °F 24.1 °F 73% 30.11 in 10.0 mi NNE 16.1 mph - N/A   Overcast
2:53 AM 30.9 °F 22.2 °F 23.0 °F 72% 30.12 in 10.0 mi NE 10.4 mph - N/A   Overcast
3:53 AM 30.9 °F 22.2 °F 23.0 °F 72% 30.10 in 10.0 mi ENE 10.4 mph - N/A   Overcast
4:53 AM 30.9 °F 21.2 °F 21.9 °F 69% 30.08 in 10.0 mi ENE 12.7 mph - N/A   Overcast
5:53 AM 30.0 °F 21.7 °F 21.9 °F 72% 30.08 in 10.0 mi ENE 9.2 mph - N/A   Clear
6:53 AM 30.0 °F 21.1 °F 21.9 °F 72% 30.08 in 10.0 mi East 10.4 mph - N/A   Partly Cloudy
7:53 AM 30.0 °F 21.7 °F 21.9 °F 72% 30.09 in 10.0 mi ENE 9.2 mph - N/A   Overcast
8:53 AM 30.0 °F 21.1 °F 21.9 °F 72% 30.09 in 10.0 mi East 10.4 mph 17.3 mph N/A   Overcast
9:35 AM 30.2 °F 21.3 °F 21.2 °F 69% 30.06 in 10.0 mi East 10.4 mph - 0.00 in   Mostly Cloudy
9:53 AM 30.9 °F 21.7 °F 21.9 °F 69% 30.09 in 10.0 mi East 11.5 mph - 0.00 in   Overcast
10:53 AM 33.1 °F 24.9 °F 23.0 °F 66% 30.07 in 10.0 mi East 10.4 mph - N/A   Overcast
11:53 AM 36.0 °F 27.1 °F 24.1 °F 62% 30.04 in 10.0 mi ENE 13.8 mph - N/A   Overcast
12:31 PM 37.4 °F 29.3 °F 24.8 °F 60% 30.00 in 10.0 mi East 12.7 mph - N/A   Overcast
12:53 PM 39.9 °F 32.9 °F 25.0 °F 55% 30.00 in 10.0 mi East 11.5 mph - N/A   Scattered Clouds
1:53 PM 42.1 °F 33.9 °F 26.1 °F 53% 29.95 in 10.0 mi ESE 17.3 mph 21.9 mph N/A   Partly Cloudy
2:53 PM 39.9 °F 32.5 °F 27.0 °F 60% 29.91 in 10.0 mi ESE 12.7 mph - 0.00 in   Overcast
3:24 PM 39.2 °F 31.6 °F 26.6 °F 61% 29.88 in 10.0 mi SE 12.7 mph - N/A   Overcast
3:53 PM 39.0 °F 32.3 °F 28.0 °F 65% 29.89 in 10.0 mi East 10.4 mph - N/A   Overcast
4:53 PM 39.0 °F 32.8 °F 28.0 °F 65% 29.87 in 10.0 mi East 9.2 mph - N/A   Overcast
5:53 PM 37.9 °F 29.6 °F 28.0 °F 68% 29.85 in 10.0 mi ESE 13.8 mph 24.2 mph N/A   Overcast
6:26 PM 37.4 °F 28.5 °F 28.4 °F 70% 29.82 in 10.0 mi ESE 15.0 mph 21.9 mph N/A   Overcast
6:43 PM 37.4 °F 28.9 °F 28.4 °F 70% 29.82 in 10.0 mi ESE 13.8 mph 21.9 mph N/A   Overcast
6:53 PM 37.0 °F 28.1 °F 28.9 °F 73% 29.83 in 10.0 mi East 15.0 mph 18.4 mph N/A   Overcast
7:24 PM 37.4 °F 29.3 °F 28.4 °F 70% 29.80 in 10.0 mi ESE 12.7 mph - N/A   Overcast
7:38 PM 37.4 °F 28.9 °F 28.4 °F 70% 29.79 in 10.0 mi ESE 13.8 mph - N/A   Overcast
7:53 PM 37.0 °F 28.5 °F 28.9 °F 73% 29.82 in 10.0 mi ESE 13.8 mph 21.9 mph N/A   Overcast
8:53 PM 36.0 °F 27.1 °F 28.9 °F 76% 29.83 in 10.0 mi ESE 13.8 mph 20.7 mph N/A   Overcast
9:19 PM 35.6 °F 30.7 °F 28.4 °F 75% 29.82 in 10.0 mi East 5.8 mph 18.4 mph N/A   Overcast
9:53 PM 35.1 °F 26.4 °F 28.9 °F 78% 29.81 in 9.0 mi ESE 12.7 mph - N/A   Overcast
10:53 PM 35.1 °F 26.4 °F 30.0 °F 82% 29.82 in 10.0 mi ESE 12.7 mph 17.3 mph N/A   Overcast
11:53 PM 35.1 °F 28.6 °F 30.0 °F 82% 29.83 in 7.0 mi SE 8.1 mph - N/A   Overcast